Flag for United Kingdom Weather past 2 weeks in Bradford, England, United Kingdom

Now
55 °F

Clear.


Feels Like: 52 °F
Forecast: 54 / 68 °F
Wind: 12 mph from West

Location: Leeds And Bradford

Current Time: Jul 30, 2014 at 4:58:04 AM

Latest Report: Jul 30, 2014 at 4:20 AM


Visibility: 10 mi

Pressure: 29.95 "Hg

Humidity: 82%

Dew point: 50 °F

Location of BradfordLocation

Historic Weather in Bradford — Graph

°F

Bradford temperature yesterday

Maximum temperature yesterday: 68 °F (at 3:20 PM)
Minimum temperature yesterday: 54 °F (at 3:20 AM)
Average temperature yesterday: 60 °F

Past Weeks' High & Low Weather Summary

 TemperatureHumidityPressure
High79 °F (Jul 25, 2:50 PM)100% (Jul 17, 12:20 AM)30.30 "Hg (Jul 17, 12:20 AM)
Low52 °F (Jul 15, 4:20 AM)46% (Jul 28, 2:50 PM)29.74 "Hg (Jul 19, 5:50 PM)
Average63 °F82%30.05 "Hg
* Reported Jul 15 3:20 AM — Jul 30 3:20 AM, Bradford, Weather by CustomWeather, © 2014

Note: Actual official high and low records may vary slightly from our data, if they occured in-between our weather recording intervals... More about our weather records

Advertising

Bradford weather history for previous 24 hours

 ConditionsComfort  
Time TempWeatherWind HumidityBarometerVisibility
3:20 AM
Jul 30
54 °FClear.12 mph88%29.95 "Hg10 mi
2:50 AM54 °FClear.13 mph88%29.98 "Hg10 mi
2:20 AM54 °FClear.13 mph88%29.98 "Hg10 mi
1:50 AM54 °FPassing clouds.7 mph88%29.98 "HgN/A
1:20 AM55 °FPassing clouds.12 mph82%29.98 "HgN/A
12:20 AM55 °FPassing clouds.8 mph82%29.98 "HgN/A
11:50 PM
Jul 29
55 °FPassing clouds.10 mph82%30.01 "HgN/A
11:20 PM55 °FPassing clouds.7 mph82%30.01 "HgN/A
10:50 PM55 °FClear.12 mph82%29.98 "Hg10 mi
10:20 PM55 °FClear.9 mph77%29.98 "Hg10 mi
9:50 PM57 °FPassing clouds.12 mph72%29.98 "HgN/A
9:20 PM57 °FPassing clouds.14 mph77%29.98 "HgN/A
8:50 PM59 °FPassing clouds.16 mph72%29.98 "HgN/A
8:20 PM61 °FPassing clouds.15 mph68%29.98 "HgN/A
7:50 PM63 °FScattered clouds.16 mph68%29.98 "HgN/A
7:20 PM63 °FScattered clouds.14 mph68%29.98 "HgN/A
6:50 PM63 °FScattered clouds.13 mph68%29.98 "HgN/A
6:20 PM63 °FScattered clouds.15 mph73%29.98 "HgN/A
5:50 PM63 °FScattered clouds.15 mph73%29.98 "HgN/A
5:20 PM63 °FScattered clouds.15 mph77%29.98 "HgN/A
4:50 PM64 °FScattered clouds.14 mph78%29.98 "HgN/A
4:20 PM64 °FSprinkles. Scattered clouds.17 mph78%29.98 "HgN/A
3:50 PM68 °FScattered clouds.14 mph69%29.98 "HgN/A
3:20 PM68 °FScattered clouds.14 mph69%29.98 "HgN/A
2:50 PM66 °FScattered clouds.14 mph73%29.98 "HgN/A
2:20 PM64 °FScattered clouds.16 mph78%30.01 "HgN/A
1:50 PM66 °FScattered clouds.15 mph68%30.01 "HgN/A
1:20 PM66 °FScattered clouds.13 mph68%30.01 "HgN/A
12:50 PM66 °FScattered clouds.15 mph68%30.01 "HgN/A
12:20 PM64 °FScattered clouds.9 mph73%30.01 "HgN/A
11:50 AM64 °FScattered clouds.14 mph73%30.01 "HgN/A
11:20 AM64 °FScattered clouds.17 mph73%30.01 "HgN/A
10:50 AM63 °FScattered clouds.16 mph83%30.01 "HgN/A
10:20 AM63 °FScattered clouds.17 mph77%30.01 "HgN/A
9:50 AM64 °FScattered clouds.17 mph73%30.01 "HgN/A
9:20 AM64 °FScattered clouds.14 mph73%30.01 "HgN/A
8:50 AM61 °FPassing clouds.10 mph83%30.01 "HgN/A
8:20 AM59 °FPassing clouds.9 mph88%30.04 "HgN/A
7:50 AM57 °FPassing clouds.12 mph94%30.04 "HgN/A
7:20 AM57 °FPassing clouds.10 mph94%30.04 "HgN/A
6:50 AM57 °FPassing clouds.12 mph94%30.04 "HgN/A
6:20 AM55 °FScattered clouds.12 mph94%30.01 "HgN/A
5:50 AM55 °FPassing clouds.12 mph94%30.04 "HgN/A
5:20 AM55 °FClear.14 mph94%30.01 "Hg10 mi
4:50 AM55 °FClear.12 mph94%30.01 "Hg10 mi
4:20 AM54 °FClear.12 mph100%30.04 "Hg10 mi
Weather by CustomWeather, © 2014

See weather overviewHow to use our weather pages